Location: Ehrke Reservoir
(40.0279°N, 99.6641°W)
Time: 18:54:27
(UTC+00:00)

Cosmos 1461 - Pass Details

Date: 20 January 2020
Orbit: 515 x 652 km, 65.0° (Epoch: 25 February)

Event Time Altitude Azimuth Distance (km) Brightness Sun altitude
Rises 00:41:25 0° 327° (NNW) 2,815 6.7 -11.4°
Reaches altitude 10° 00:43:37 10° 326° (NW) 1,933 5.8 -11.8°
Maximum altitude 00:48:00 80° 241° (WSW) 627 3.2 -12.6°
Drops below altitude 10° 00:52:31 10° 154° (SSE) 2,000 5.6 -13.5°
Sets 00:54:50 0° 153° (SSE) 2,920 6.4 -13.9°
